Regional Weather Roundup
Issued by NWS Cleveland, OH

Home | Current Version | Previous Version | Text Only | Print | Product List | Glossary Off
Versions: 1 2 3 4 5 6 7 8 9 10 11 12 13 14 15 16 17 18 19 20 21 22 23 24 25 26 27 28 29 30 31 32 33 34 35 36 37 38 39 40 41 42 43 44 45 46 47 48 49 50

000
ASUS41 KCLE 180110
RWRCLE
OHIO REGIONAL WEATHER ROUNDUP
NATIONAL WEATHER SERVICE CLEVELAND, OH
800 PM EST TUE JAN 17 2017

NOTE: "FAIR" INDICATES FEW OR NO CLOUDS BELOW 12,000 FEET WITH NO
SIGNIFICANT WEATHER AND/OR OBSTRUCTIONS TO VISIBILITY.

OHZ001>008-015>018-024>027-034-035-043-044-180200-
   NORTHWEST OHIO

CITY           SKY/WX    TMP DP  RH WIND       PRES   REMARKS
DEFIANCE       CLOUDY    43  38  82 W9G18     29.93R
FINDLAY        CLOUDY    45  40  82 W16       29.92R
TOLEDO EXPRESS CLOUDY    41  41 100 W17       29.91R
TOLEDO EXEC    CLOUDY    44  42  93 W14       29.91R
LIMA           CLOUDY    44  42  93 W17       29.95R
$$

OHZ009>014-019>023-028>033-038-089-180200-
   NORTHEAST OHIO

CITY           SKY/WX    TMP DP  RH WIND       PRES   REMARKS
CLE-HOPKINS    CLOUDY    51  42  71 W16       29.91R
CLE-LAKEFRONT  CLOUDY    43  40  89 W22       29.87R
CUY CO. ARPT   CLOUDY    46  32  57 W14G23    29.88R
LORAIN-ELYRIA  CLOUDY    47  41  80 W15G23    29.89R
ASHTABULA      CLOUDY    47  46  97 W10       29.86R
AKRON-CANTON   CLOUDY    55  44  66 W14       29.88R
WOOSTER        CLOUDY    48  41  76 W20G26    29.90R
MANSFIELD      CLOUDY    47  43  86 SW8       29.91R
YOUNGSTOWN     MOCLDY    50  44  80 SW9       29.86S
$$

OHZ042-051>053-060>062-070>072-077>081-180200-
  SOUTHWEST OHIO

CITY           SKY/WX    TMP DP  RH WIND       PRES   REMARKS
CINC-COVINGTON CLOUDY    46  41  82 W16G23    30.03R
CINC-LUNKEN    CLOUDY    49  42  77 W16G24    30.04R
HAMILTON       CLOUDY    48  41  76 W10       30.03R
DAYTON         CLOUDY    45  42  89 W17       29.99S
WRIGHT-PAT AFB CLOUDY    47  43  86 SW14      29.98R
DAYTON GENERAL CLOUDY    47  40  76 SW14      29.99S
WILMINGTON     CLOUDY    47  40  76 W15G24    30.00R
$$

OHZ036-037-039>041-045>050-054>059-063>069-073>076-082>088-180200-
  CENTRAL AND SOUTHEAST OHIO

CITY           SKY/WX    TMP DP  RH WIND       PRES   REMARKS
COLUMBUS       CLOUDY    51  42  71 W16       29.95R
OSU AIRPORT    CLOUDY    48  42  80 W15       29.95R
BOLTON FIELD   CLOUDY    47  41  79 W9        29.98R
RICKENBACK AFB   N/A     49  43  80 W15G28    29.97R
NEWARK         CLOUDY    51  43  74 W15G22    29.94R
MARION         CLOUDY    47  42  83 W15G23    29.94R
LANCASTER      CLOUDY    53  45  74 W10G18    29.96R
ZANESVILLE     CLOUDY    54  43  66 W14       29.92R
NEW PHILLY     NOT AVBL
$$




USA.gov is the U.S. government's official web portal to all federal, state and local government web resources and services.